GFSNW_prec_cthk_261.txt.gz
RH
59 70 84 88 84 85 94 83 85 98 96 89 83 78 56 43 46 51 51 56 66 68 65 63 64 66 62 57 58 59 61 59 59 57 56 55 56 55 59 71 65 74 74 64
61 67 80 83 92 85 89 94 85 83 93 84 78 65 52 44 43 47 51 53 62 63 69 67 66 66 65 59 60 62 61 64 68 68 63 58 62 61 60 63 68 72 79 66
59 60 75 80 97 100 96 94 93 87 93 81 67 62 59 46 44 48 52 54 63 62 67 69 68 67 66 62 60 61 60 65 62 68 61 60 61 60 61 65 76 73 66 58
63 66 66 78 87 91 95 91 86 74 76 67 65 54 48 46 51 52 54 57 60 64 66 65 66 58 60 61 63 64 64 62 64 64 64 62 61 59 61 66 66 71 56 55
72 68 61 62 67 76 86 68 81 68 57 54 56 49 47 48 47 55 55 57 60 59 50 47 52 53 60 63 67 68 70 69 65 67 63 59 58 57 60 60 62 61 53 49
76 71 64 60 59 62 60 54 52 51 50 53 53 49 52 48 47 51 55 61 59 57 50 49 50 55 56 60 66 69 72 75 71 70 69 63 60 54 51 48 44 48 50 40
82 74 71 65 57 52 52 55 55 53 53 54 52 54 57 56 53 50 57 63 63 58 56 54 54 54 56 60 64 68 70 72 75 76 69 73 49 46 44 42 38 38 39 40
85 80 76 67 64 59 56 55 58 55 57 56 57 56 54 55 56 57 56 63 69 70 69 70 67 63 56 55 60 66 66 70 75 73 72 55 43 38 39 41 38 38 40 41
90 88 74 70 67 66 62 56 59 59 56 59 55 54 53 54 58 60 54 60 65 69 71 71 72 70 61 60 57 58 62 62 67 72 71 61 42 43 41 38 42 36 41 44
93 87 82 80 78 73 65 60 60 63 64 63 58 54 53 52 49 50 54 55 61 63 67 74 73 69 57 59 59 58 63 65 66 70 65 53 39 38 39 45 45 45 46 48
96 94 90 86 85 77 74 65 62 67 65 67 62 61 60 57 53 51 48 66 66 71 72 73 74 67 58 55 52 57 56 66 72 69 67 61 38 41 48 45 44 45 48 48
93 93 93 90 87 82 78 70 67 70 74 68 70 67 63 62 61 58 61 62 66 73 72 70 70 69 59 56 56 49 56 50 55 55 50 40 40 39 44 46 43 44 45 47
95 94 96 93 92 88 80 80 79 75 79 77 70 71 68 65 65 66 69 69 70 72 68 74 76 73 68 68 60 54 49 49 52 53 46 41 39 44 44 45 46 49 53 56
95 97 98 96 98 98 90 82 81 80 79 85 78 70 70 71 71 70 73 76 77 81 79 76 73 73 73 70 63 58 56 63 61 56 49 45 43 42 46 48 52 56 61 61
99 96 97 98 99 95 92 93 89 84 85 85 80 78 74 71 73 71 77 82 84 92 93 91 80 72 69 67 64 58 56 58 63 59 47 47 50 48 49 52 62 64 66 68
93 98 99 99 99 96 96 98 92 83 84 78 80 79 81 76 72 71 81 81 87 90 97 96 89 80 77 78 69 50 49 50 47 50 54 55 55 55 56 59 65 64 66 72
99 99 98 99 99 96 93 82 76 77 76 79 79 76 75 78 79 78 77 81 86 91 90 95 97 93 91 83 66 53 53 56 60 62 63 58 58 58 61 62 63 65 66 69
99 98 99 98 98 97 94 85 86 84 80 75 75 69 67 70 72 76 76 79 84 88 86 87 92 95 91 77 54 54 59 61 63 62 62 58 59 58 58 57 54 54 55 57
99 99 98 99 99 98 96 94 94 89 82 71 62 55 55 59 61 68 76 82 84 82 83 85 88 86 77 49 54 56 54 51 57 61 61 60 60 58 52 47 46 46 48 53
98 99 98 99 98 98 96 98 94 87 77 64 55 49 50 49 58 66 71 79 87 86 76 79 83 66 45 47 49 49 50 52 58 56 57 57 52 50 47 48 45 42 42 50
97 96 96 99 99 93 93 94 87 81 68 54 48 44 44 48 55 64 70 83 90 89 77 85 75 57 51 49 48 49 49 50 49 49 50 55 53 50 48 47 47 50 53 53
87 86 95 98 97 95 92 95 87 73 58 48 43 39 37 46 53 59 72 81 92 88 83 85 72 55 48 49 53 55 53 52 50 49 49 50 52 52 54 57 57 54 49 46
90 94 98 96 98 98 94 85 72 60 48 48 47 49 46 51 49 56 74 77 72 75 85 73 59 52 54 62 60 54 53 53 53 56 57 57 56 55 54 52 48 43 42 41
94 95 93 94 97 89 66 46 44 45 45 45 45 52 58 59 62 74 78 77 69 75 75 63 56 54 55 56 58 57 56 56 56 58 59 56 56 50 45 38 35 35 35 37
97 95 95 88 79 73 62 52 48 49 46 49 54 59 63 71 75 73 79 85 71 59 56 56 56 57 55 54 52 54 53 52 51 55 52 47 43 40 38 37 36 34 34 36
93 93 92 83 79 74 68 65 58 55 61 63 59 66 69 68 69 85 88 78 61 48 53 58 59 59 55 53 52 50 49 48 49 46 45 43 42 40 38 37 37 35 39 42
81 69 66 70 73 67 61 60 61 65 68 70 69 64 54 60 67 67 71 62 51 55 59 58 58 57 60 56 47 41 41 42 41 42 42 42 41 38 37 37 36 37 42 47

GFSNW_prec_cthk_264.txt.gz
RH
58 67 71 77 70 88 99 95 99 93 89 98 93 91 79 76 59 54 55 55 54 63 69 70 71 71 66 61 62 60 59 57 58 55 56 56 54 56 58 67 60 68 69 60
62 57 58 57 72 82 98 91 97 99 79 96 92 89 85 77 68 52 44 50 50 55 67 68 68 69 64 62 66 64 59 61 65 57 56 57 59 59 62 64 67 68 72 62
62 57 57 70 74 75 85 94 93 99 91 74 87 87 84 81 71 51 41 46 49 51 62 68 65 65 63 63 63 64 64 66 64 67 59 58 59 60 62 67 76 69 67 60
62 60 60 69 81 84 84 82 94 98 98 88 79 83 84 78 71 50 42 46 48 53 60 68 67 64 65 63 62 61 61 60 65 64 62 61 58 57 61 63 63 67 59 53
68 61 60 70 95 99 91 96 81 97 86 84 77 81 76 74 67 53 42 45 50 57 62 64 69 61 65 63 56 58 60 68 66 71 65 63 61 55 57 60 59 60 61 51
74 66 78 68 87 92 98 93 78 72 85 85 82 76 72 76 60 48 36 40 54 61 62 63 58 53 50 50 53 61 66 70 74 69 68 63 60 55 56 54 54 53 54 37
79 71 69 75 77 86 91 87 93 82 90 88 75 70 71 69 53 45 42 44 54 60 62 59 55 55 55 54 51 59 66 66 73 76 68 73 51 49 48 45 42 42 39 39
86 78 73 76 78 88 79 72 87 90 91 85 82 77 61 55 49 51 46 49 54 65 69 66 67 66 60 57 52 57 61 70 76 75 73 58 49 46 45 41 39 36 35 35
92 88 86 81 73 76 70 73 81 79 75 80 70 69 68 56 54 55 53 51 54 62 75 75 74 74 65 64 61 57 59 60 72 77 74 70 46 42 39 37 43 37 38 38
94 92 94 83 76 69 65 62 64 74 73 69 66 61 64 56 56 58 56 53 57 61 73 82 78 74 65 68 65 64 61 65 67 73 72 58 47 43 41 45 40 37 40 44
98 99 95 86 80 74 71 65 63 62 60 62 61 56 51 50 50 53 54 60 61 68 70 74 79 76 70 63 62 64 62 66 66 64 65 60 43 45 43 38 37 38 40 43
98 98 96 97 86 78 73 68 65 62 62 63 58 56 53 50 47 48 52 50 52 53 61 65 69 69 65 59 63 64 66 58 57 57 52 44 42 42 40 38 39 40 43 43
98 98 99 98 86 79 74 71 68 67 69 70 66 64 59 55 55 55 55 55 55 57 56 61 64 64 62 66 62 56 51 50 50 52 46 44 45 45 43 42 41 41 45 46
98 98 97 99 93 85 79 76 73 72 73 78 75 67 66 61 58 58 58 58 61 65 68 70 67 66 62 62 61 58 55 59 61 56 49 49 51 49 49 49 45 44 45 49
92 98 97 97 99 98 90 85 82 80 80 79 76 71 68 63 61 59 59 64 69 73 75 75 75 71 70 66 65 56 51 53 61 57 51 48 49 52 53 47 44 49 52 56
89 98 98 99 98 93 93 97 93 85 78 75 80 76 71 67 65 64 64 62 67 73 75 81 78 74 81 79 67 50 51 50 49 48 49 48 49 47 45 45 48 51 55 60
96 99 99 97 96 97 86 78 77 82 83 78 77 77 77 72 69 68 69 68 67 67 74 81 78 78 88 86 64 48 54 54 52 56 61 59 60 59 59 57 57 57 58 61
97 96 95 99 99 99 99 93 86 90 90 87 82 74 68 74 74 75 74 74 75 77 75 73 75 84 87 83 49 52 57 62 56 57 67 66 68 64 62 61 59 56 55 54
98 99 99 98 98 99 98 94 92 92 89 79 70 67 70 69 70 73 74 74 75 73 74 77 82 85 82 57 53 56 57 55 55 62 67 66 62 56 58 60 58 57 54 50
92 96 98 98 95 99 98 96 94 91 84 71 64 62 64 60 62 68 69 69 68 67 60 66 70 61 45 48 49 51 52 55 58 57 50 51 55 53 54 51 53 54 50 49
99 98 97 99 98 97 98 98 95 87 78 66 62 61 57 60 62 62 63 65 66 63 55 61 57 47 35 38 41 45 48 51 51 50 45 46 50 51 53 56 54 50 48 48
93 94 96 98 97 97 97 95 87 70 61 57 59 59 55 60 60 59 61 62 65 61 59 61 49 30 32 41 47 48 48 51 53 53 50 51 50 49 49 49 53 55 53 53
96 96 97 97 97 96 88 82 70 63 53 52 52 58 56 60 53 57 59 63 62 60 61 51 35 27 30 44 53 54 53 52 52 51 52 52 51 53 55 56 56 53 50 50
95 96 97 95 90 77 66 56 53 51 51 55 55 55 52 54 53 52 55 60 65 65 56 45 34 26 34 45 55 55 55 53 51 50 50 51 52 53 53 54 56 57 54 52
94 88 93 86 75 69 61 53 57 63 63 59 60 61 61 64 63 62 68 73 66 55 46 36 34 42 47 54 61 63 61 56 51 52 53 55 57 55 54 56 55 51 46 41
90 83 72 68 65 63 57 54 59 60 62 61 61 69 68 66 69 69 68 69 55 44 40 34 44 60 65 70 67 67 63 58 52 53 55 55 55 57 57 53 46 40 37 36
84 75 61 56 56 58 60 58 58 60 60 63 64 64 62 66 69 65 60 49 34 36 44 48 48 59 66 66 66 67 61 56 54 54 56 56 53 51 48 41 35 36 36 36

GFSNW_prec_cthk_267.txt.gz
RH
54 54 87 82 92 90 95 99 97 89 99 98 87 86 78 71 71 74 70 70 72 72 67 67 71 72 70 66 64 58 58 55 55 58 61 59 56 54 53 62 60 65 64 55
59 56 78 94 98 99 94 91 84 96 99 88 83 82 81 82 80 72 62 58 55 58 62 67 74 76 72 68 64 61 57 59 62 58 58 58 57 59 60 60 64 66 74 56
65 60 74 95 93 98 97 93 85 96 98 89 77 81 83 87 82 81 74 56 43 50 52 58 70 76 76 72 66 61 61 60 58 61 56 57 59 58 60 60 72 66 63 59
70 62 86 86 93 98 99 98 86 89 95 97 92 78 86 87 90 85 81 68 36 41 53 54 62 73 73 72 68 65 61 60 61 61 60 60 60 59 61 61 60 64 56 56
82 70 75 89 90 96 98 92 75 92 96 95 96 89 79 84 89 87 87 67 50 40 47 53 58 65 73 69 69 66 63 66 60 62 59 61 61 58 59 60 60 57 56 50
83 75 74 71 89 91 94 93 72 75 97 96 90 87 85 72 79 88 83 70 61 50 47 59 61 60 64 63 61 66 65 61 60 64 60 61 63 59 57 56 55 55 52 42
87 79 74 74 67 86 74 77 66 74 98 98 89 82 83 86 80 86 84 69 53 42 51 60 62 58 63 63 60 56 54 54 59 67 61 68 53 51 50 49 47 43 38 34
98 87 77 74 71 77 81 80 81 75 89 83 83 83 92 92 83 85 75 59 56 51 55 62 66 64 61 59 60 53 50 53 64 68 62 54 49 48 49 46 38 33 34 33
96 82 84 74 77 76 80 80 78 80 80 82 80 84 90 88 82 78 70 64 63 58 60 65 70 70 63 64 61 56 56 56 62 67 67 61 45 43 44 43 40 35 36 35
98 92 89 80 76 72 81 85 90 97 95 95 92 86 82 81 80 75 69 66 61 58 62 71 69 66 63 67 65 65 67 67 67 69 71 58 46 43 41 48 44 35 34 34
98 98 96 87 92 91 83 88 89 94 92 94 90 86 80 76 80 74 71 71 63 65 68 71 73 68 64 64 62 62 63 68 69 65 70 62 42 43 43 37 34 36 36 35
97 97 98 89 93 91 85 86 78 80 76 86 82 77 84 79 73 69 66 67 64 55 62 66 67 70 66 61 65 60 63 55 56 52 52 44 42 39 38 37 35 36 35 36
96 98 99 97 97 88 90 86 81 72 68 74 79 77 76 72 70 65 64 62 58 55 54 60 63 63 60 61 58 56 53 52 49 49 45 44 43 44 44 43 43 42 41 43
94 97 98 98 96 98 88 86 80 67 71 76 72 67 66 67 67 62 55 52 50 51 55 57 61 61 58 59 56 52 49 52 51 49 45 46 48 48 47 50 50 49 50 49
89 96 98 98 98 99 95 87 77 68 67 70 68 69 67 62 60 58 58 58 57 59 61 65 66 65 67 67 60 51 49 49 53 49 44 45 44 45 48 47 44 47 49 48
87 96 98 99 98 98 95 94 87 76 68 67 75 75 73 70 66 62 58 61 61 62 65 66 65 71 73 72 58 48 51 51 51 48 49 48 48 45 43 41 43 45 48 51
88 96 99 97 99 98 89 74 65 77 72 68 80 80 74 71 68 65 62 59 58 59 64 65 67 70 71 69 53 46 49 50 51 55 56 57 54 48 50 53 54 54 54 55
84 99 98 98 99 99 95 87 85 85 80 75 76 75 77 72 70 70 69 67 66 64 63 62 63 67 69 62 40 46 49 49 48 53 57 56 53 53 54 57 58 56 54 57
89 98 99 99 99 99 96 94 93 92 86 79 71 70 74 76 75 75 76 73 72 70 69 69 70 69 60 40 44 44 46 46 44 47 48 51 52 51 53 58 55 56 50 51
91 99 99 98 99 100 99 97 97 97 90 75 71 68 74 73 76 81 77 76 77 72 68 70 68 48 31 33 31 32 34 36 40 43 43 46 44 46 49 51 54 50 49 48
99 98 98 97 98 98 98 97 98 96 88 70 68 70 71 71 71 73 71 73 69 65 59 59 48 38 25 19 22 25 28 30 34 36 38 41 42 43 45 45 47 48 47 45
96 94 96 88 96 98 97 97 96 88 75 71 69 71 67 70 67 68 68 58 58 56 56 54 45 31 22 22 22 23 23 25 28 34 37 40 42 44 44 44 46 46 46 48
97 96 97 97 97 96 96 94 86 76 66 64 63 69 69 73 66 63 59 57 55 54 56 45 39 27 23 26 25 24 24 25 27 32 38 41 44 46 48 50 54 55 55 55
93 96 96 97 97 84 71 68 61 56 59 62 62 68 67 66 61 58 55 55 56 58 54 45 34 27 27 25 26 27 29 30 34 36 40 46 47 51 55 54 55 55 55 55
94 82 93 91 78 70 68 67 65 66 65 61 66 71 66 66 62 58 59 62 57 49 42 37 29 27 28 31 32 33 35 37 40 46 47 47 53 55 56 57 57 56 55 53
87 88 90 85 78 76 71 69 72 70 70 65 63 70 70 67 62 60 57 54 46 40 38 32 30 32 37 42 45 44 46 50 49 54 56 57 59 60 61 63 62 55 50 47
86 87 82 78 78 75 74 73 73 73 70 73 70 70 72 72 70 63 55 48 40 36 31 29 29 35 40 43 40 47 51 50 52 56 61 61 61 64 60 57 55 49 45 47

GFSNW_prec_cthk_270.txt.gz
RH
71 61 55 51 55 62 98 97 96 92 95 98 95 88 80 79 80 75 69 67 71 71 72 70 71 69 69 65 64 59 58 56 62 61 59 55 52 53 53 57 54 54 56 51
72 66 58 54 57 67 95 96 96 96 98 97 95 87 81 84 78 74 68 72 73 74 75 73 69 68 67 66 66 67 63 60 63 61 62 60 58 55 52 51 54 59 66 54
69 71 62 58 61 85 97 98 97 99 98 97 90 87 85 87 79 73 72 73 67 63 68 72 67 68 71 73 72 69 66 61 60 63 59 59 60 55 52 54 63 56 56 52
79 71 67 60 62 91 98 94 87 93 91 95 83 86 84 80 83 74 74 74 62 57 49 51 56 62 73 77 75 72 67 65 63 61 61 58 57 55 55 55 53 57 49 46
75 75 73 64 66 91 99 98 98 94 90 91 85 88 83 77 79 84 79 77 76 54 33 38 49 52 66 72 73 72 69 69 63 75 59 57 56 54 55 55 55 53 48 44
81 78 81 67 75 95 98 95 91 94 93 86 85 78 78 76 79 86 84 87 86 70 41 39 48 50 53 61 69 69 69 69 67 68 62 57 51 48 50 52 52 51 49 44
96 84 83 72 78 90 97 98 93 98 98 86 78 79 80 86 79 82 88 90 89 70 53 57 58 57 54 53 57 65 64 63 67 67 56 65 44 44 45 47 47 44 39 33
83 82 81 80 76 83 95 96 97 97 98 88 84 81 82 91 91 90 88 90 87 71 56 62 67 65 60 57 60 64 61 60 65 63 56 47 41 41 45 46 44 36 34 33
79 77 75 82 79 81 97 97 98 95 95 95 82 85 86 91 94 94 90 87 87 73 68 69 64 61 53 59 63 63 61 60 63 64 62 51 37 32 34 39 40 34 34 33
93 92 88 81 83 82 97 99 95 94 91 85 83 72 80 87 92 90 87 89 88 85 80 77 71 63 51 58 57 61 66 67 70 62 65 48 42 38 37 41 38 31 32 32
97 97 97 87 81 81 89 98 96 89 86 94 88 77 75 79 88 82 81 91 86 82 83 74 73 66 59 54 52 53 56 64 65 63 72 62 42 42 41 38 33 31 32 31
93 97 97 99 88 83 84 83 85 93 94 93 85 80 78 76 85 85 83 79 75 70 69 70 70 66 60 50 58 54 55 47 53 49 48 43 40 37 38 38 35 36 35 35
90 95 96 94 92 84 80 91 94 90 93 90 92 92 85 83 80 80 84 83 77 73 71 72 67 61 57 60 53 52 50 49 48 50 42 42 42 43 44 43 42 41 40 39
89 94 96 98 94 97 85 86 76 82 90 82 87 89 92 91 89 87 82 80 74 72 72 72 70 69 65 62 56 51 50 51 48 47 45 45 44 43 42 45 45 43 43 42
87 93 98 98 99 99 88 86 84 85 79 87 92 90 88 86 82 79 78 76 74 72 71 71 72 68 65 62 55 49 47 46 49 48 44 47 46 46 45 42 41 38 37 38
87 92 91 99 99 98 91 96 98 90 80 90 97 88 89 90 83 75 73 73 69 68 73 73 68 66 61 61 53 45 53 49 46 45 50 49 46 43 42 40 37 34 36 36
76 83 95 98 99 95 96 95 89 92 85 79 87 89 85 78 73 73 71 67 67 66 69 72 71 66 63 60 50 48 47 45 44 45 47 44 43 39 41 43 41 41 41 43
72 83 90 97 99 98 99 94 94 91 78 73 93 87 81 73 71 72 66 66 64 60 58 57 59 63 61 54 44 38 38 40 44 43 41 39 40 42 42 44 44 45 45 49
72 83 93 99 99 98 98 97 94 90 83 80 72 72 77 73 76 74 73 70 68 63 62 59 56 54 50 38 39 36 36 37 36 36 36 37 36 34 36 43 46 47 49 54
87 97 98 99 96 99 98 98 97 96 88 75 69 66 73 69 71 75 74 71 73 70 63 64 62 49 43 43 33 30 29 29 28 27 27 28 27 29 33 38 43 44 45 48
99 98 98 97 98 99 98 98 98 97 94 77 72 69 70 75 75 77 76 76 72 70 66 67 58 50 36 26 24 23 22 22 22 23 23 22 24 27 29 32 34 39 42 44
92 97 97 98 99 98 97 97 96 91 83 73 70 69 70 74 74 76 77 75 72 66 64 66 55 33 24 21 19 17 17 17 18 20 21 22 24 25 28 31 34 39 41 44
97 99 99 98 98 97 96 93 87 79 66 63 62 69 68 71 71 71 73 70 65 57 59 46 33 24 20 19 19 18 19 18 19 20 22 22 23 25 28 31 37 44 48 53
98 98 97 98 96 93 73 63 62 58 53 58 61 63 64 65 66 64 63 57 54 54 51 40 29 23 23 22 19 19 20 20 20 21 22 24 26 26 27 32 39 48 56 61
98 96 95 93 84 68 60 59 58 60 62 59 65 69 64 68 64 56 56 60 53 41 35 30 26 25 23 23 24 24 25 25 25 25 26 30 31 29 34 41 49 57 57 60
96 94 90 85 74 71 69 66 66 70 70 68 68 70 72 69 62 57 54 44 35 32 31 29 28 26 29 31 29 29 30 30 30 30 31 32 32 34 39 50 61 67 63 60
95 92 76 68 72 74 74 74 72 70 68 71 73 71 70 67 63 54 45 41 36 32 33 32 32 31 33 36 32 30 29 29 28 27 32 37 40 46 50 64 67 68 65 58

GFSNW_prec_cthk_276.txt.gz
RH
96 97 97 83 73 82 95 99 94 86 90 99 95 92 68 60 60 72 72 70 71 66 73 70 69 60 62 61 58 51 55 71 68 58 55 49 51 44 50 64 64 66 68 64
95 97 98 93 67 95 98 98 98 98 97 97 92 73 64 67 61 72 73 70 66 67 72 78 74 66 71 68 60 58 58 67 81 82 63 54 59 49 55 56 57 67 78 54
97 96 98 98 69 93 97 98 98 98 98 96 83 68 62 66 66 77 75 72 70 74 84 77 76 73 71 65 60 58 61 61 70 91 78 64 58 56 60 60 77 65 61 57
97 90 84 98 74 94 99 98 98 97 96 96 82 81 66 60 71 77 79 77 70 71 75 80 70 78 76 68 62 62 66 64 67 75 73 70 69 62 59 62 64 60 53 57
88 89 98 98 96 98 98 98 97 94 90 94 93 77 65 57 70 71 75 76 73 76 71 69 71 74 80 69 64 66 65 73 75 91 69 66 70 69 74 65 55 54 52 53
81 86 94 98 97 98 98 98 96 94 95 95 97 69 49 56 75 70 75 77 74 74 70 74 74 74 79 74 64 66 69 69 73 81 66 62 64 59 56 52 50 50 52 48
88 96 95 96 96 97 98 96 97 97 97 97 78 60 52 66 81 73 79 79 78 79 67 68 76 65 68 67 63 63 64 68 76 79 72 85 57 51 48 48 43 44 45 49
79 92 99 98 99 96 96 98 88 93 93 85 87 74 63 81 89 88 85 82 81 78 72 75 75 67 62 58 57 55 53 61 75 82 74 63 53 44 42 38 33 34 39 42
75 87 93 96 98 98 95 91 96 97 90 92 91 82 70 90 96 98 93 91 84 79 80 84 84 76 60 45 45 52 50 56 64 67 65 58 41 37 40 35 34 26 30 29
76 89 95 96 95 98 98 90 94 96 88 90 95 78 76 86 96 96 98 96 94 88 85 91 88 82 68 56 48 52 64 72 78 71 76 56 46 40 37 41 38 31 30 30
78 90 86 85 87 97 96 94 98 86 80 85 91 84 87 92 96 96 96 98 96 96 93 91 83 72 69 63 57 61 61 65 66 62 70 66 44 44 41 41 38 35 32 31
85 94 92 90 85 90 89 97 97 92 79 84 77 73 89 95 95 95 95 92 88 92 85 78 79 74 70 66 73 64 66 55 56 52 51 44 41 41 38 41 40 40 34 33
93 94 94 95 94 98 94 85 95 97 79 81 88 86 91 93 99 98 95 96 91 84 81 82 79 72 66 72 67 64 62 60 57 55 49 50 46 44 42 39 39 37 38 37
97 97 94 98 98 98 97 92 85 92 87 78 78 80 94 94 90 97 97 96 94 91 89 90 83 80 68 72 69 67 67 61 56 52 51 52 51 46 45 47 44 39 37 36
95 95 96 96 96 98 98 99 98 91 78 75 78 83 94 94 94 93 96 94 93 94 94 91 90 84 75 75 72 66 60 58 56 52 49 53 54 54 53 50 48 46 38 37
95 92 98 94 97 96 99 98 99 93 84 78 88 89 95 96 97 93 98 94 95 93 91 89 84 78 72 74 68 61 64 62 58 57 54 50 50 49 47 44 44 42 39 36
94 98 94 98 97 98 98 98 96 98 84 79 89 98 98 98 97 96 97 97 95 92 91 88 82 82 78 75 67 65 62 58 57 55 54 50 50 47 44 44 42 39 37 38
93 92 93 94 98 99 91 86 93 93 97 87 91 96 99 98 98 98 97 96 96 96 96 92 88 88 83 71 59 58 53 52 51 49 47 47 47 46 43 40 37 33 34 34
91 88 83 89 93 92 90 94 99 99 98 93 89 92 93 98 98 97 98 97 98 93 93 91 85 84 73 56 54 52 50 48 46 44 42 41 40 38 37 32 30 28 26 24
86 90 92 91 87 90 97 98 98 98 99 97 87 77 77 86 92 96 96 93 94 90 88 82 77 70 67 60 54 51 46 42 40 37 36 36 37 33 30 27 24 20 20 19
87 93 87 92 93 98 99 98 99 98 95 93 88 82 74 77 82 86 86 91 89 88 83 80 70 51 45 45 47 39 37 36 33 33 32 33 31 30 24 21 19 17 16 16
83 95 92 97 97 98 98 98 98 98 98 91 81 80 76 83 84 89 86 86 85 82 72 74 63 40 37 36 33 34 38 34 32 31 31 30 24 21 20 19 17 15 15 15
91 98 98 98 98 98 97 97 97 96 83 77 70 72 75 84 85 85 79 87 90 79 80 68 46 36 34 32 34 39 37 35 33 30 25 21 20 18 15 16 17 16 16 16
98 97 98 98 97 95 84 76 68 61 62 64 69 71 79 81 85 85 81 81 80 78 65 44 39 34 36 36 36 37 36 30 24 21 20 18 16 17 18 16 16 17 18 19
99 95 95 94 96 88 78 84 74 71 76 75 82 81 79 82 84 76 73 76 71 56 42 40 37 37 37 37 35 32 26 21 17 17 18 18 19 18 18 19 17 16 18 19
99 92 92 92 91 87 87 80 74 75 74 80 74 78 82 75 69 64 65 58 48 39 36 35 33 31 29 29 26 20 18 17 17 19 22 22 21 20 20 18 15 15 18 20
88 87 91 95 97 94 90 81 71 71 69 71 73 77 72 62 57 52 45 42 37 33 32 31 28 26 25 23 20 19 18 19 21 22 24 25 24 22 18 17 20 22 25 28